sat.trackr.live / text

‹ back to catalog

STARLINK-31587

NORAD 59570 · 2024-076G

PAYLOAD ACTIVE UNKNOWN

§ Identity

Operator
Country
US
Launch date
2024-04-23
Launch site
AFETR
Launch vehicle
Mass (kg)
RCS (m²)

Purposes: comms

External: N2YO · Heavens-Above · Gunter

§ Orbital elements

Epoch: 2026-09-21T06:42:17.779680Z

Period
94.27 min
Inclination
43.0032°
Eccentricity
0.0001264
Mean motion
15.27580181 rev/d
Perigee alt
482.2 km
Apogee alt
483.9 km
Semi-major
6,861.2 km
B*
1.5623e-5
RAAN
344.5795°
Arg perigee
254.5245°
Mean anomaly
105.5467°
Rev number
13,643

§ Raw data

STARLINK-315871 59570U 24076G   26264.27937245  .00000168  00000+0  15623-4 0  99992 59570  43.0032 344.5795 0001264 254.5245 105.5467 15.27580181136430

JSON: /api/v1/satellites/59570 · /tle

For live sub-satellite position, see the globe view (requires WebGL).

§ Visibility from observer

Set your observer location to see the next 7 days of passes ≥ 10°. The values pass through the URL so the page stays shareable.

No JS? Fill the form by hand. The geolocation button needs JavaScript.